Home   Weather   Wichita Falls   Past weeks

Flag for USA Past Weather in Wichita Falls, Texas, USA — Yesterday and Last 2 Weeks

Now
36 °F

Mostly cloudy.


Feels Like: 26 °F
Forecast: 26 / 37 °F
Wind: 16 mph from Northeast

Location: Wichita Falls - Sheppard Air Force Base

Current Time: Dec 7, 2016 at 10:17:36 pm

Latest Report: Dec 7, 2016 at 9:52 pm


Visibility: 10 mi

Pressure: 30.41 "Hg

Humidity: 75%

Dew Point: 29 °F

Location of Wichita FallsLocation

Past Weather in Wichita Falls — Graph

°F

Wichita Falls Temperature Yesterday

Maximum temperature yesterday: 48 °F (at 2:52 pm)
Minimum temperature yesterday: 31 °F (at 11:52 pm)
Average temperature yesterday: 41 °F

High & Low Weather Summary for the Past Weeks

 TemperatureHumidityPressure
High71 °F (Nov 24, 2:52 pm)100% (Dec 5, 6:52 am)30.49 "Hg (Dec 5, 6:52 am)
Low28 °F (Dec 7, 6:52 am)17% (Nov 28, 3:52 pm)29.36 "Hg (Nov 28, 1:52 pm)
Average49 °F67%30.00 "Hg
* Reported Nov 22 8:00 pm — Dec 7 8:52 pm, Wichita Falls, Weather by CustomWeather, © 2016

Note: Actual official high and low records may vary slightly from our data, if they occured in-between our weather recording intervals... More about our weather records

Advertising

Wichita Falls Weather History for the Previous 24 Hours

Scroll right to see more
 ConditionsComfort  
Time TempWeatherWind HumidityBarometerVisibility
8:52 pm
Wed, Dec 7
37 °FOvercast.17 mph73%30.37 "Hg10 mi
7:52 pm38 °FOvercast.23 mph68%30.34 "Hg10 mi
6:52 pm40 °FOvercast.21 mph58%30.29 "Hg10 mi
5:52 pm43 °FOvercast.20 mph58%30.23 "Hg10 mi
4:52 pm45 °FOvercast.10 mph56%30.19 "Hg10 mi
3:52 pm46 °FOvercast.14 mph54%30.16 "Hg10 mi
2:52 pm47 °FOvercast.13 mph59%30.13 "Hg10 mi
1:52 pm47 °FOvercast.5 mph56%30.12 "Hg10 mi
12:52 pm47 °FPartly sunny.6 mph59%30.12 "Hg10 mi
11:52 am45 °FPartly sunny.3 mph60%30.13 "Hg10 mi
10:52 am43 °FPartly sunny.3 mph62%30.14 "Hg10 mi
9:52 am37 °FPartly sunny.6 mph73%30.13 "Hg10 mi
8:52 am32 °FBroken clouds.5 mph82%30.12 "Hg10 mi
7:52 am29 °FBroken clouds.5 mph85%30.10 "Hg10 mi
6:52 am28 °FPassing clouds.5 mph89%30.09 "Hg10 mi
5:52 am29 °FClear.6 mph85%30.07 "Hg10 mi
4:52 am30 °FClear.3 mph85%30.06 "Hg10 mi
3:52 am31 °FPassing clouds.5 mph82%30.08 "Hg10 mi
2:52 am31 °FClear.5 mph82%30.07 "Hg10 mi
1:52 am31 °FClear.5 mph82%30.06 "Hg10 mi
12:52 am31 °FClear.5 mph79%30.08 "Hg10 mi
11:52 pm
Tue, Dec 6
31 °FClear.5 mph79%30.10 "Hg10 mi
10:52 pm33 °FClear.6 mph75%30.09 "Hg10 mi
Weather by CustomWeather, © 2016

See weather overviewHow to use our weather pages